Content
SEND FEEDBACK

Daily
Averages
Monthly
Summary
Turkmenistan

ASHGABAT, TURKMENISTAN


Home > Asia > Turkmenistan
Elevation: 775 feet     Latitude: 37 58N     Longitude: 058 20E

WEATHER
 
SELECT A DAY
Number of Records: 177,426;   Date Range: 3/15/97 - 8/30/14
 
SHARE

PRINT THIS DATA

[ ← Previous Day ]
WEATHER ALMANAC - APRIL 7, 2013
[ Next Day → ]
[ °C ]   °F
Weather ElementAverageHighLow
Temperature67.4 °F80.6 °F (2:00 pm)50 °F (5:00 am)
Dewpoint37.2 °F44 °F (11:00 pm)30.2 °F (3:00 pm)
Humidity35.5 %69 % (5:00 am)11 % (2:00 pm)
Barometer29.91 in29.97 in (8:00 am)29.86 in (5:00 pm)
Wind Speed8.6 mph17.9 mph (5:30 pm)
Wind Gust29.1 mph (2:00 pm)
Weather ElementAverage
Visibility6.2 mi
Wind DirectionSE (130.9 °)

Weather ElementTotal
Precipitation---
Cooling Degree Days0.3 (Base 65)
Growing Degree Days15.3 (Base 50)
Averaged from 33 records on April 7, 2013
WEATHER CONDITIONS BREAKOUT
WIND DIRECTION BREAKOUT
WEATHER BY HOUR - APRIL 7, 2013
[ °C ]   °F
Local TimeTemperatureDewpointHumidityBarometerVisibilityWind DirectionWind SpeedGust SpeedPrecipitationEventsConditions
1:00 AM60.8 °F37.4 °F42 %29.92 in6.2 miSSE (150°)6.7 mphClear
2:00 AM59.0 °F42.0 °F41 %29.93 in6.0 miSSW (210°)2.2 mph
2:00 AM59.0 °F37.4 °F45 %29.92 in6.2 miESE (120°)4.5 mphClear
3:00 AM55.4 °F39.2 °F54 %29.92 in6.2 miWest (270°)4.5 mphClear
4:00 AM51.8 °F41.0 °F67 %29.89 in6.2 miSW (220°)2.2 mphClear
5:00 AM50.0 °F43.0 °F69 %29.92 in6.0 miSSE (160°)2.2 mph
5:00 AM51.8 °F41.0 °F67 %29.89 in6.2 miSSE (160°)4.5 mphClear
6:00 AM51.8 °F41.0 °F67 %29.92 in6.2 miSSE (160°)4.5 mphClear
7:00 AM50.0 °F39.2 °F66 %29.95 in6.2 miSSW (210°)4.5 mphMostly Cloudy
8:00 AM54.0 °F42.0 °F54 %29.97 in6.0 miCalmScattered Clouds
8:00 AM57.2 °F42.8 °F59 %29.95 in6.2 miSE (140°)2.2 mphMostly Cloudy
9:00 AM64.4 °F39.2 °F40 %29.95 in6.2 miVariable2.2 mphScattered Clouds
10:00 AM69.8 °F37.4 °F31 %29.95 in6.2 miESE (110°)8.9 mphScattered Clouds
11:00 AM72.0 °F42.0 °F23 %29.95 in6.0 miESE (120°)8.9 mphClear
11:00 AM73.4 °F39.2 °F29 %29.95 in6.2 miSE (130°)8.9 mphScattered Clouds
12:00 PM77.0 °F33.8 °F21 %29.92 in6.2 miESE (110°)13.4 mphMostly Cloudy
1:00 PM78.8 °F32.0 °F18 %29.92 in6.2 miEast (100°)15.7 mphMostly Cloudy
2:00 PM80.0 °F34.0 °F11 %29.89 in6.0 miEast (100°)13.4 mphPartly Cloudy
2:00 PM80.6 °F32.0 °F17 %29.92 in6.2 miESE (110°)13.4 mph29.1 mphMostly Cloudy
3:00 PM80.6 °F30.2 °F16 %29.89 in6.2 miEast (100°)15.7 mphMostly Cloudy
4:00 PM80.6 °F32.0 °F17 %29.89 in6.2 miEast (90°)15.7 mphMostly Cloudy
4:30 PM80.6 °F32.0 °F17 %29.89 in6.2 miEast (100°)15.7 mphMostly Cloudy
5:00 PM79.0 °F37.0 °F13 %29.86 in6.0 miEast (90°)15.7 mphPartly Cloudy
5:00 PM78.8 °F32.0 °F18 %29.89 in6.2 miEast (100°)15.7 mphMostly Cloudy
5:30 PM78.8 °F30.2 °F17 %29.89 in6.2 miEast (100°)17.9 mphMostly Cloudy
6:00 PM77.0 °F30.2 °F18 %29.89 in6.2 miEast (100°)15.7 mphMostly Cloudy
7:00 PM75.2 °F32.0 °F21 %29.89 in6.2 miEast (100°)11.2 mphMostly Cloudy
8:00 PM73.0 °F37.0 °F17 %29.87 in6.0 miEast (100°)8.9 mphPartly Cloudy
8:00 PM69.8 °F35.6 °F28 %29.89 in6.2 miESE (110°)8.9 mphMostly Cloudy
9:00 PM64.4 °F39.2 °F40 %29.92 in6.2 miSE (130°)6.7 mphScattered Clouds
10:00 PM62.6 °F41.0 °F45 %29.92 in6.2 miSE (140°)6.7 mphClear
11:00 PM63.0 °F44.0 °F39 %29.91 in6.0 miSouth (170°)2.2 mphClear
11:00 PM62.6 °F41.0 °F45 %29.92 in6.2 miSouth (180°)4.5 mphPartly Cloudy
Hourly data recorded from UTAA, located miles away from Ashgabat, Turkmenistan







STORIES FROM OUR PARTNERS